This is the latest recevied weather packets stored in our database for station/object IZ6EGX-13. If no packets are shown the sender has not sent any weather packets the latest 10 day(s).
| Time | Temp. | Humidity | Pressure | Rain* | Wind** | Luminosity | Snow |
|---|---|---|---|---|---|---|---|
| 1777805786 | 21.67° C | 36% | 1019.1 hPa | 0 mm | - | - | - |
| 1777805186 | 21.67° C | 35% | 1019.3 hPa | 0 mm | - | - | - |
| 1777804586 | 21.67° C | 35% | 1019.3 hPa | 0 mm | - | - | - |
| 1777803986 | 21.67° C | 36% | 1019.4 hPa | 0 mm | - | - | - |
| 1777803386 | 21.11° C | 36% | 1019.5 hPa | 0 mm | - | - | - |
| 1777802786 | 21.11° C | 36% | 1019.6 hPa | 0 mm | - | - | - |
| 1777802186 | 21.11° C | 37% | 1019.6 hPa | 0 mm | - | - | - |
| 1777801586 | 21.11° C | 38% | 1019.6 hPa | 0 mm | - | - | - |
| 1777800987 | 21.11° C | 40% | 1019.7 hPa | 0 mm | - | - | - |
| 1777800386 | 21.11° C | 41% | 1019.8 hPa | 0 mm | - | - | - |
| 1777799786 | 21.11° C | 41% | 1019.8 hPa | 0 mm | - | - | - |
| 1777799186 | 21.67° C | 38% | 1019.8 hPa | 0 mm | - | - | - |
| 1777798586 | 21.11° C | 36% | 1019.9 hPa | 0 mm | - | - | - |
| 1777797986 | 21.67° C | 35% | 1019.9 hPa | 0 mm | - | - | - |
| 1777797386 | 21.67° C | 35% | 1019.9 hPa | 0 mm | - | - | - |
| 1777796786 | 20.56° C | 36% | 1020 hPa | 0 mm | - | - | - |
| 1777796186 | 21.67° C | 36% | 1019.9 hPa | 0 mm | - | - | - |
| 1777795586 | 22.22° C | 34% | 1019.9 hPa | 0 mm | - | - | - |
| 1777794986 | 21.67° C | 34% | 1020 hPa | 0 mm | - | - | - |
| 1777794386 | 21.67° C | 36% | 1020 hPa | 0 mm | - | - | - |
| 1777793786 | 21.11° C | 40% | 1020 hPa | 0 mm | - | - | - |
| 1777793186 | 21.11° C | 40% | 1020 hPa | 0 mm | - | - | - |
| 1777792586 | 20.56° C | 40% | 1020.1 hPa | 0 mm | - | - | - |
| 1777791986 | 20° C | 41% | 1020.1 hPa | 0 mm | - | - | - |
| 1777791386 | 19.44° C | 40% | 1020.2 hPa | 0 mm | - | - | - |
* Rain latest hour (hover to see other rain measurements)
** Current wind speed in m/s (hover to see current wind gust speed)